Location: Sawyer Lake
(45.2517°N, 88.7550°W)
Time: 19:19:10
(UTC-05:00)

Daily predictions for brighter satellites

Satellite Brightness Start Highest point End
(mag) Time Altitude Azimuth Time Altitude Azimuth Time Altitude Azimuth
Cosmos 2034 Rocket 4.2 20:55:59 10° N 21:02:18 60° ENE 21:08:32 10° SSE
Cosmos 1331 Rocket 4.4 20:57:34 10° NNW 21:02:45 66° WSW 21:07:52 10° S
Terra 4.1 21:04:25 10° ENE 21:04:59 10° NE 21:05:34 10° NE
Atlas Centaur 2 4.1 21:02:49 10° SSW 21:08:12 21° SSE 21:14:01 10° ESE
ATLAS CENTAUR R/B 2.9 21:03:34 10° SW 21:08:26 51° NW 21:13:23 10° NNE
Meteor 1-15 Rocket 4.2 21:04:24 10° N 21:10:01 81° E 21:15:40 10° SSE
Cosmos 2369 Rocket 3.5 21:06:10 10° N 21:11:00 28° NE 21:15:46 10° ESE
Cosmos 2219 Rocket 4.5 21:06:06 10° WSW 21:11:03 31° NW 21:16:01 10° N
H-2A R/B 2.2 21:07:26 10° S 21:11:40 80° WSW 21:16:04 10° NNW
Cosmos 1302 Rocket 4.1 21:07:38 10° NNW 21:12:54 89° W 21:18:10 10° SSE
SeaSat 1 2.6 21:08:01 10° SE 21:12:54 66° ENE 21:17:49 10° NNW
DEBRIS 3.3 21:06:24 10° WNW 21:13:00 53° SW 21:15:32 10° SE
Cosmos 1666 2.7 21:11:16 10° N 21:15:11 86° E 21:19:05 10° S
ARGOS 4.3 21:11:07 10° ESE 21:15:46 30° ENE 21:20:25 10° N
CZ-4B R/B 4.3 21:12:34 10° NE 21:17:04 31° E 21:21:37 10° SSE
PSLV R/B 3.4 21:16:31 10° SSE 21:19:33 56° ENE 21:22:37 10° N
SL-16 R/B 2.5 21:13:56 10° SSW 21:19:35 75° WNW 21:25:16 10° NNE
Cosmos 1626 Rocket 3.7 21:16:15 10° S 21:20:35 54° E 21:24:55 10° NNE
Cosmos 1939 Rocket 3.0 21:18:55 10° S 21:23:05 83° WSW 21:27:16 10° NNW
Milstar 3 Cent rocket 4.4 21:21:07 10° SW 21:23:30 12° SSW 21:25:34 10° S
COSMOS 2455 3.4 21:21:57 10° S 21:27:23 37° ESE 21:32:49 10° NE
Cosmos 2228 3.4 21:24:50 10° NNW 21:29:13 67° W 21:33:35 10° S
APEX 4.2 21:27:50 10° NW 21:31:42 52° WSW 21:36:43 10° S
Lacrosse 5 rocket 2.7 21:29:16 10° WSW 21:33:00 42° NNW 21:36:57 10° NE
MetOp-B 4.2 21:28:13 10° SSE 21:33:32 67° ENE 21:38:52 10° N
ATLAS 3B R/B 3.8 21:31:29 10° SSE 21:37:42 28° ESE 21:43:49 10° NE
ERS-1 Rocket 4.4 21:40:01 10° SSW 21:44:36 36° W 21:49:14 10° NNW
Cosmos 1515 4.1 21:43:53 13° SSE 21:47:09 44° E 21:50:51 10° NNE
Cosmos 1603 3.6 21:42:54 10° SSW 21:48:29 77° ESE 21:54:07 10° NNE
Envisat 3.4 21:43:32 10° S 21:48:34 62° W 21:53:37 10° NNW
Abrixas rocket 4.1 21:46:49 10° W 21:49:27 20° SW 21:51:25 13° S
USA 234 3.3 21:45:49 14° SE 21:51:40 82° SW 21:58:16 10° NW
Cosmos 1346 Rocket 3.8 21:56:00 19° SE 21:57:48 28° E 22:01:12 10° NNE
Lacrosse 4 Rocket 2.7 21:59:12 19° ESE 21:59:47 19° ESE 22:02:43 10° ENE
UNK 4.3 21:57:43 10° NNE 22:03:07 87° WNW 22:08:47 10° SSW
USA 81 4.1 21:58:41 10° N 22:03:59 69° E 22:08:02 17° SSE
YAOGAN 6 2.7 22:02:20 17° S 22:05:07 79° WSW 22:08:53 10° NNW
ISS -2.8 22:05:05 10° SSW 22:08:05 35° SE 22:11:06 10° ENE
PSLV R/B 4.1 22:05:06 10° SW 22:08:18 32° SSE 22:09:23 26° SE
BREEZE-M DEB (TANK) 1.8 22:05:01 10° SW 22:08:20 60° SSE 22:09:51 16° ENE
Tsikada Rocket 4.4 22:04:24 10° SSW 22:10:47 67° W 22:17:09 10° N
CZ-4 R/B 3.9 22:06:01 10° NNE 22:10:59 66° ESE 22:15:27 13° S
Cosmos 1758 Rocket 4.2 22:10:06 22° SE 22:12:19 38° E 22:16:22 10° NNE
Cosmos 1943 3.4 22:07:36 10° S 22:13:04 52° ESE 22:18:35 10° NE
CARTOSAT-1 4.2 22:14:29 23° SE 22:16:45 41° ENE 22:20:50 10° N
Cosmos 1943 Rocket 3.1 22:14:52 10° NNW 22:19:58 36° NE 22:23:31 18° ESE
SPOT 5 4.1 22:16:07 10° SSW 22:20:03 31° W 22:23:56 10° NW
SL-8 R/B 4.3 22:19:43 10° W 22:24:30 58° N 22:29:17 10° E
Cosmos 1992 Rocket 4.2 22:19:33 10° NNW 22:24:45 69° WSW 22:28:11 21° S
Landsat 7 3.8 22:23:17 25° SSE 22:26:04 72° ENE 22:30:49 10° N
SL-08 RB Rocket 3.8 22:27:20 23° S 22:30:10 77° WSW 22:34:44 10° NNW
Cosmos 1825 Rocket 3.6 22:26:46 16° SSW 22:30:17 82° W 22:34:45 10° N
H-2A R/B 2.1 22:28:49 26° SE 22:31:32 63° ENE 22:36:32 10° N
SAR-Lupe-2 3.6 22:30:47 35° SE 22:32:04 63° ENE 22:35:38 10° N
Cosmos 1766 3.5 22:28:51 10° N 22:32:49 59° E 22:34:21 34° SE
Lacrosse 5 4.4 22:31:33 10° WNW 22:35:28 22° N 22:39:24 10° NE
Geosat 3.9 22:34:56 10° NNE 22:39:59 75° ESE 22:44:24 14° SSW
SPOT 1/Viking Rocket 4.4 22:36:21 15° SSW 22:40:19 44° W 22:45:15 10° NNW
Terra 1.8 22:39:33 30° SSE 22:41:52 73° ENE 22:46:38 10° N
Cosmos 1190 Rocket 4.0 22:40:31 14° SSW 22:45:03 86° ESE 22:50:25 10° NNE
Cosmos 1634 Rocket 4.4 22:43:01 10° NNW 22:49:02 57° W 22:53:38 18° SSW
CZ-4C R/B 4.1 22:48:46 25° SSW 22:50:55 50° W 22:54:55 10° NNW
DMSP B5D2-2 4.1 22:45:39 10° NNE 22:50:55 62° ESE 22:53:28 30° S
Cosmos 2369 Rocket 2.6 22:49:50 10° NW 22:55:21 54° WSW 22:58:16 27° S
ARGOS 4.1 22:52:04 18° SSW 22:55:49 42° W 23:00:59 10° NNW
Atlas Centaur 2 3.8 22:50:09 10° SW 22:56:48 28° S 22:58:15 27° SSE
Cosmos 676 Rocket 4.0 22:58:33 27° S 23:01:28 74° ESE 23:06:48 10° NNE
Cosmos 1470 4.3 22:58:46 10° NNE 23:01:53 22° ENE 23:02:29 21° E
Cosmos 1900 4.3 23:02:03 24° SSW 23:05:08 72° ESE 23:10:16 10° NE
Cosmos 1805 3.4 23:03:26 10° N 23:07:21 61° E 23:08:04 50° SE
Cosmos 1953 2.2 23:05:15 10° N 23:09:16 79° E 23:10:05 55° SSE
Cosmos 1140 Rocket 3.9 23:09:16 37° SE 23:10:31 44° ESE 23:15:29 10° NNE
Lacrosse 5 rocket 4.3 23:10:22 10° NW 23:13:13 18° N 23:16:09 10° NE
COSMOS 2455 4.0 23:07:30 10° WSW 23:13:13 44° NW 23:18:59 10° NNE
Cosmos 2279 Rocket 4.3 23:07:25 10° NNW 23:13:36 64° W 23:17:08 27° SSW
IGS 5A 4.1 23:20:24 35° SW 23:21:37 46° W 23:25:39 10° NNW
COSMOS 2406 3.5 23:21:07 39° SSE 23:22:39 49° ESE 23:28:11 10° NE
Cosmos 1340 4.0 23:24:54 27° E 23:24:54 27° E 23:27:46 10° NNE
Cosmos 2084 3.4 23:20:42 10° NW 23:24:50 75° NE 23:25:43 53° ESE
ATLAS 3B R/B 3.1 23:20:09 10° SW 23:27:52 77° NW 23:35:23 10° NE
SL-27 R/B 2.3 23:29:07 74° NE 23:29:07 74° NE 23:32:13 10° NNE
Cosmos 1932 4.3 23:27:10 31° SSW 23:30:16 69° ESE 23:36:29 10° NE
H-2A R/B 4.1 23:27:23 10° NE 23:29:41 20° E 23:29:41 20° E
Cosmos 2221 3.7 23:27:09 10° NNE 23:30:56 28° ENE 23:31:38 27° E
Cosmos-2242 3.8 23:29:46 10° NNW 23:34:00 46° W 23:35:14 36° SW
Cosmos 407 Rocket 4.4 23:29:34 13° SW 23:34:02 47° WNW 23:39:05 10° N
Lacrosse 4 Rocket 2.4 23:35:28 17° WSW 23:38:12 42° NW 23:42:08 10° NNE
Okean 3 Rocket 3.9 23:40:01 46° ESE 23:40:19 47° E 23:44:34 10° NNE
Cosmos 1607 4.1 23:40:07 41° SSE 23:41:40 50° ESE 23:47:39 10° NE
Cosmos 614 Rocket 4.2 23:41:05 47° SE 23:41:55 52° ESE 23:46:59 10° NNE
ISS -2.2 23:41:21 10° W 23:44:30 44° NNW 23:47:39 10° NE
Cosmos 2208 Rocket 3.9 23:39:35 10° NNW 23:44:48 80° WSW 23:46:06 51° S
Cosmos 1707 3.4 23:46:39 41° E 23:46:39 41° E 23:50:08 10° NNE
CZ-4B R/B 2.7 23:50:52 34° ENE 23:50:55 34° ENE 23:54:17 10° N
Cosmos 1544 3.1 23:48:15 10° NNW 23:52:01 74° W 23:52:01 74° W
IKONOS-2 4.5 23:52:24 62° SSW 23:52:54 70° WSW 23:57:11 10° NNW
CZ-4C R/B 3.6 23:53:25 45° NE 23:53:25 45° NE 23:56:04 10° N
